Flag for Estonia Weather past 2 weeks in Tartu, Estonia

Now
41 °F

Passing clouds.


Feels Like: 41 °F
Forecast: 49 / 65 °F
Wind: No wind

Location: Tartu/Ulenurme

Current Time: Aug 31, 2014 at 7:17:16 AM

Latest Report: Aug 31, 2014 at 5:50 AM


Visibility: N/A

Pressure: 30.09 "Hg

Humidity: 87%

Dew point: 37 °F

Location of TartuLocation

Historic Weather in Tartu — Graph

°F

Tartu temperature yesterday

Maximum temperature yesterday: 61 °F (at 2:50 PM)
Minimum temperature yesterday: 46 °F (at 3:50 AM)
Average temperature yesterday: 53 °F

Past Weeks' High & Low Weather Summary

 TemperatureHumidityPressure
High70 °F (Aug 18, 1:50 PM)100% (Aug 16, 6:50 AM)30.09 "Hg (Aug 16, 6:50 AM)
Low41 °F (Aug 31, 4:50 AM)46% (Aug 18, 1:50 PM)29.39 "Hg (Aug 27, 7:50 AM)
Average57 °F81%29.71 "Hg
* Reported Aug 16 5:50 AM — Aug 31 5:50 AM, Tartu, Weather by CustomWeather, © 2014

Note: Actual official high and low records may vary slightly from our data, if they occured in-between our weather recording intervals... More about our weather records

Advertising

Tartu weather history for previous 24 hours

 ConditionsComfort  
Time TempWeatherWind HumidityBarometerVisibility
5:50 AM
Aug 31
41 °FPassing clouds.No wind87%30.09 "HgN/A
4:50 AM41 °FQuite cool.No wind93%30.07 "Hg2 mi
3:50 AM43 °FQuite cool.1 mph87%30.07 "Hg4 mi
2:50 AM45 °FQuite cool.No wind87%30.07 "HgN/A
1:50 AM45 °FQuite cool.No wind93%30.07 "Hg3 mi
12:50 AM46 °FCool.2 mph87%30.07 "HgN/A
11:50 PM
Aug 30
50 °FCool.No wind82%30.07 "HgN/A
10:50 PM52 °FOvercast.2 mph82%30.07 "HgN/A
9:50 PM54 °FOvercast.2 mph72%30.04 "HgN/A
8:50 PM54 °FOvercast.2 mph77%30.04 "HgN/A
7:50 PM55 °FOvercast.5 mph67%30.04 "HgN/A
6:50 PM57 °FPartly sunny.8 mph63%30.04 "HgN/A
5:50 PM59 °FScattered clouds.2 mph59%30.01 "HgN/A
4:50 PM59 °FPartly sunny.6 mph63%30.01 "HgN/A
3:50 PM59 °FPartly sunny.6 mph68%30.01 "HgN/A
2:50 PM61 °FScattered clouds.8 mph63%30.01 "HgN/A
1:50 PM59 °FScattered clouds.2 mph68%30.01 "HgN/A
12:50 PM57 °FSprinkles. Scattered clouds.7 mph72%30.01 "HgN/A
11:50 AM59 °FPartly sunny.5 mph72%29.98 "HgN/A
10:50 AM55 °FPartly sunny.5 mph88%29.98 "HgN/A
9:50 AM54 °FPartly sunny.6 mph94%29.98 "HgN/A
8:50 AM50 °FPartly sunny.6 mph94%29.95 "Hg6 mi
7:50 AM48 °FFog.7 mph94%29.95 "Hg4 mi
Weather by CustomWeather, © 2014

See weather overviewHow to use our weather pages